Hourly Data Report for August 18, 2021

LONDON CS
ONTARIO
Current Station Operator: ECCC - MSC

43°02'00.000" N
81°09'00.000" W
278.00 m
6144478
71622
WSN

Download Data

Hourly Data (August 2021)
Hourly Data Report for August 18, 2021
TIME
LST
Temp Definition
°C
Dew Point Definition
°C
Rel Hum Definition
%
Precip. Amount Definition
mm

Wind Dir Definition
10's deg

Wind Spd Definition
km/h
Visibility Definition
km
Stn Press Definition
kPa
Hmdx Definition


Wind Chill Definition


Weather Definition


00:00 18.1 17.1 94 0.0       98.71     LegendNANA
01:00 17.8 16.8 94 0.0       98.67     LegendNANA
02:00 17.8 16.8 94 0.0       98.65     LegendNANA
03:00 17.6 16.7 95 0.0       98.63     LegendNANA
04:00 18.1 17.0 94 0.0       98.66     LegendNANA
05:00 18.1 17.0 93 0.0       98.69     LegendNANA
06:00 18.7 17.6 93 0.0       98.74     LegendNANA
07:00 19.4 18.4 94 0.0       98.77     LegendNANA
08:00 20.6 19.1 92 0.0       98.80 27   LegendNANA
09:00 22.0 19.5 86 0.0       98.77 29   LegendNANA
10:00 23.5 18.5 74 0.0       98.77 30   LegendNANA
11:00 24.2 19.0 73 0.0       98.74 31   LegendNANA
12:00 24.8 19.7 74 0.0       98.71 32   LegendNANA
13:00 25.3 20.6 75 0.0       98.70 33   LegendNANA
14:00 25.8 20.4 72 0.0       98.65 34   LegendNANA
15:00 25.3 20.9 77 0.2       98.61 34   LegendNANA
16:00 26.4 21.2 73 0.0       98.57 35   LegendNANA
17:00 23.8 20.8 83 1.1       98.56 32   LegendNANA
18:00 23.1 21.2 89 1.8       98.58 32   LegendNANA
19:00 23.6 21.0 86 0.0       98.59 32   LegendNANA
20:00 22.4 21.0 92 0.0       98.63 31   LegendNANA
21:00 22.5 21.2 93 3.3       98.64 31   LegendNANA
22:00 21.7 21.0 96 0.0       98.64 30   LegendNANA
23:00 20.9 20.5 97 0.0       98.63 29   LegendNANA

Notes on Data Quality.

Legend

  • E = Estimated
  • M = Missing
  • NA = Not Available*
  • [empty] = Indicates an unobserved value
Date modified: